Home > Weather > Yellowknife > Past weeks

Flag for Canada Past Weather in Yellowknife, Northwest Territories, Canada — Yesterday and Last 2 Weeks

Now
68 °F

Broken clouds.


Feels Like: 68 °F
Forecast: 46 / 65 °F
Wind: 18 mph from Northwest

Location: Yellowknife

Current Time: Jul 26, 2016 at 7:55:58 PM

Latest Report: Jul 26, 2016 at 7:00 PM


Visibility: 15 mi

Pressure: 29.89 "Hg

Humidity: 49%

Dew Point: 48 °F

Location of YellowknifeLocation

Past Weather in Yellowknife — Graph

°F

Yellowknife Temperature Yesterday

Maximum temperature yesterday: 68 °F (at 3:00 PM)
Minimum temperature yesterday: 50 °F (at 5:00 AM)
Average temperature yesterday: 59 °F

High & Low Weather Summary for the Past Weeks

 TemperatureHumidityPressure
High86 °F (Jul 14, 5:00 PM)94% (Jul 18, 6:00 AM)30.15 "Hg (Jul 18, 6:00 AM)
Low46 °F (Jul 21, 5:00 AM)18% (Jul 13, 6:00 PM)29.63 "Hg (Jul 24, 10:00 AM)
Average64 °F58%29.85 "Hg
* Reported Jul 11 6:00 PM — Jul 26 6:00 PM, Yellowknife, Weather by CustomWeather, © 2016

Note: Actual official high and low records may vary slightly from our data, if they occured in-between our weather recording intervals... More about our weather records

Advertising

Yellowknife Weather History for the Previous 24 Hours

Scroll right to see more
 ConditionsComfort  
Time TempWeatherWind HumidityBarometerVisibility
6:00 PM
Tue, Jul 26
68 °FPartly sunny.17 mph60%29.87 "Hg15 mi
5:00 PM72 °FMostly cloudy.9 mph53%29.84 "Hg15 mi
4:00 PM68 °FPartly sunny.10 mph60%29.83 "Hg15 mi
3:52 PM72 °FPartly sunny.12 mph47%29.83 "Hg15 mi
3:00 PM77 °FBroken clouds.13 mph36%29.81 "Hg15 mi
2:00 PM75 °FPartly sunny.14 mph36%29.81 "Hg15 mi
1:00 PM75 °FScattered clouds.9 mph41%29.81 "Hg15 mi
12:00 PM70 °FScattered clouds.13 mph57%29.81 "Hg15 mi
11:00 AM66 °FPassing clouds.13 mph68%29.82 "Hg15 mi
10:00 AM63 °FScattered clouds.12 mph77%29.82 "Hg15 mi
9:00 AM61 °FScattered clouds.12 mph83%29.83 "Hg15 mi
8:00 AM59 °FBroken clouds.13 mph82%29.83 "Hg15 mi
7:00 AM59 °FBroken clouds.14 mph82%29.84 "Hg15 mi
6:00 AM57 °FPartly sunny.15 mph82%29.85 "Hg15 mi
5:00 AM59 °FPassing clouds.15 mph77%29.87 "Hg15 mi
4:00 AM59 °FPassing clouds.14 mph72%29.88 "Hg15 mi
3:00 AM57 °FPassing clouds.12 mph88%29.89 "Hg15 mi
2:00 AM57 °FPartly cloudy.12 mph82%29.90 "Hg15 mi
1:00 AM59 °FPassing clouds.12 mph59%29.91 "Hg15 mi
12:00 AM59 °FPassing clouds.9 mph51%29.92 "Hg15 mi
11:00 PM
Mon, Jul 25
57 °FPartly sunny.8 mph55%29.93 "Hg8 mi
10:00 PM59 °FPartly sunny.7 mph55%29.95 "Hg15 mi
9:00 PM61 °FBroken clouds.9 mph45%29.95 "Hg15 mi
8:00 PM63 °FPartly sunny.14 mph45%29.95 "Hg15 mi
7:00 PM64 °FPartly sunny.13 mph43%29.95 "Hg15 mi
Weather by CustomWeather, © 2016

See weather overviewHow to use our weather pages